FW4110 Weather Reports


time (UTC)temp
C
wind
direction
speed
KPH
gust
KPH
rain 1hr
cm
rain 24hr
cm
rain mn
cm
humidity
%
barometer
mb
20260507094508 3 45 0.0 0.0 0.00 0.10 0.00 83 1020.0
20260507093006 3 46 0.0 0.0 0.00 0.10 0.00 80 1019.8
20260507091506 3 46 0.0 0.0 0.00 0.10 0.00 69 1019.8
20260507090006 3 46 0.0 0.0 0.00 0.10 0.00 66 1020.0
20260507084600 4 46 0.0 0.0 0.00 0.15 0.00 64 1020.2
20260507083058 4 45 0.0 0.0 0.00 0.15 0.00 64 1020.3
20260507081558 4 45 0.0 0.0 0.00 0.15 0.00 61 1020.5
20260507080101 4 45 0.0 0.0 0.00 0.15 0.00 60 1020.7
20260507074607 5 46 0.0 0.0 0.00 0.18 0.00 59 1020.5
20260507073053 5 46 0.0 0.0 0.00 0.18 0.00 59 1020.4
20260507071554 5 45 0.0 0.0 0.00 0.18 0.00 59 1020.2
20260507070106 5 46 0.0 0.0 0.00 0.18 0.00 57 1020.3
20260507064550 5 46 0.0 0.0 0.00 0.20 0.00 56 1020.4
20260507063056 5 46 0.0 0.0 0.00 0.20 0.00 65 1020.6
20260507061549 5 46 0.0 0.0 0.00 0.20 0.00 70 1020.6
20260507060046 5 46 0.0 0.0 0.00 0.20 0.00 75 1020.6
20260507054544 5 46 0.0 0.0 0.00 0.38 0.00 76 1020.4
20260507053043 5 46 0.0 0.0 0.00 0.38 0.00 76 1020.5
20260507051540 5 46 0.0 0.0 0.00 0.38 0.00 77 1020.4
20260507050038 5 46 0.0 0.0 0.00 0.38 0.00 81 1020.3
20260507044535 5 46 0.0 0.0 0.00 0.66 0.00 82 1020.2
20260507043037 6 46 0.0 0.0 0.00 0.66 0.00 82 1020.1
20260507041533 6 46 0.0 0.0 0.00 0.66 0.00 83 1020.0
20260507040033 6 45 0.0 0.0 0.00 0.66 0.00 84 1020.2
20260507034535 6 46 0.0 0.0 0.00 0.76 0.00 85 1020.2
20260507033028 6 46 0.0 0.0 0.00 0.76 0.00 86 1020.3
20260507031526 7 46 0.0 0.0 0.00 0.76 0.00 86 1020.4
20260507030023 7 45 0.0 0.0 0.00 0.76 0.00 86 1020.3
20260507024525 7 46 0.0 0.0 0.00 0.81 0.00 86 1020.2
20260507023024 8 46 0.0 0.0 0.00 0.81 0.00 86 1020.1
20260507021520 8 45 0.0 0.0 0.00 0.81 0.00 85 1020.0
20260507020030 8 46 0.0 0.0 0.00 0.81 0.00 85 1019.8
20260507014519 8 46 0.0 0.0 0.00 0.89 0.00 84 1019.6
20260507013038 9 46 0.0 0.0 0.00 0.89 0.00 84 1019.3
20260507011518 10 46 0.0 0.0 0.00 0.89 0.00 81 1019.3
20260507010017 11 46 0.0 0.0 0.00 0.89 0.00 80 1019.0
20260507004517 13 46 0.0 0.0 0.00 0.89 0.00 75 1018.6
20260507003015 14 47 0.0 3.2 0.00 0.89 0.00 71 1018.6
20260507001516 15 1 0.0 8.0 0.00 0.89 0.00 66 1018.7
20260507000017 15 351 3.2 9.7 0.00 0.89 0.00 66 1018.8
20260506234520 15 355 3.2 9.7 0.00 0.89 0.00 66 1018.6
20260506233014 15 35 6.4 9.7 0.00 0.89 0.00 64 1018.6
20260506231514 15 343 4.8 14.5 0.00 0.89 0.00 63 1018.7
20260506230011 16 342 11.3 17.7 0.00 0.89 0.00 63 1018.6
20260506224511 15 356 8.0 14.5 0.00 0.89 0.00 62 1018.6
20260506223011 16 326 11.3 19.3 0.00 0.89 0.00 61 1018.7
20260506221509 16 23 3.2 14.5 0.00 0.89 0.00 61 1018.7
20260506220017 16 46 1.6 12.9 0.00 0.89 0.00 60 1018.7
20260506214509 16 359 9.7 22.5 0.00 0.89 0.00 59 1018.8
20260506213006 16 28 6.4 14.5 0.00 0.89 0.00 61 1018.9
20260506211508 15 1 4.8 11.3 0.00 0.89 0.00 60 1019.0
20260506210010 15 67 4.8 16.1 0.00 0.89 0.00 65 1019.1
20260506204501 15 14 3.2 14.5 0.00 0.89 0.00 66 1019.0
20260506203100 15 21 6.4 17.7 0.00 0.89 0.00 65 1019.4
20260506201604 15 8 6.4 14.5 0.00 0.89 0.00 65 1019.5
20260506200058 15 30 8.0 19.3 0.00 0.89 0.00 66 1019.8
20260506194558 16 349 9.7 16.1 0.00 0.89 0.00 66 1019.8
20260506193056 16 47 6.4 20.9 0.00 0.89 0.00 64 1019.6
20260506191557 15 21 9.7 22.5 0.00 0.89 0.00 63 1019.6
20260506190056 15 322 4.8 16.1 0.00 0.89 0.00 64 1019.5
20260506184559 15 351 8.0 16.1 0.00 0.89 0.00 65 1019.4
20260506183054 15 308 4.8 27.4 0.00 0.89 0.00 70 1019.4
20260506181550 15 47 3.2 19.3 0.00 0.89 0.00 65 1019.5
20260506180049 15 62 3.2 16.1 0.00 0.89 0.00 71 1019.8
20260506174548 14 18 6.4 14.5 0.00 0.89 0.00 70 1019.9
20260506173049 14 41 4.8 14.5 0.00 0.89 0.00 70 1019.9
20260506171549 13 59 3.2 17.7 0.00 0.89 0.00 62 1019.8
20260506170037 13 289 3.2 12.9 0.00 0.89 0.00 55 1019.7
20260506164547 12 334 4.8 17.7 0.00 0.91 0.00 60 1019.7
20260506163032 12 17 4.8 17.7 0.00 0.91 0.00 66 1019.7
20260506161528 11 358 6.4 9.7 0.00 0.91 0.00 74 1019.5
20260506160024 11 354 4.8 9.7 0.00 0.91 0.00 81 1019.6
20260506154521 10 5 4.8 11.3 0.00 0.91 0.00 81 1019.4
20260506153018 10 3 0.0 0.0 0.00 0.91 0.00 87 1019.1
20260506151516 10 349 0.0 6.4 0.00 0.91 0.00 92 1019.1
20260506150017 9 353 3.2 8.0 0.00 0.91 0.00 92 1018.7
20260506144512 9 344 0.0 1.6 0.00 1.07 0.00 92 1018.8
20260506143009 8 338 0.0 11.3 0.00 1.07 0.00 92 1018.9
20260506141506 8 9 6.4 12.9 0.00 1.07 0.00 92 1018.7
20260506140005 8 20 1.6 11.3 0.00 1.07 0.00 92 1018.7
20260506134559 8 348 0.0 6.4 0.00 1.07 0.00 92 1018.6
20260506133106 8 346 0.0 4.8 0.00 1.07 0.00 92 1018.7
20260506131557 8 330 1.6 4.8 0.00 1.07 0.00 92 1018.6
20260506130051 8 249 1.6 4.8 0.00 1.07 0.00 92 1018.4
20260506124549 8 350 0.0 4.8 0.00 1.07 0.00 91 1018.1
20260506123048 7 50 0.0 0.0 0.00 1.07 0.00 91 1017.6
20260506121553 -17 0.0 0.0 0.00 1.07 0.00 1018.1